Location: Kumla
(59.1265°N, 15.1401°E)
Time: 21:42:02
(UTC+01:00)

Vanguard 1 - Pass Details

Date: 06 December 2023
Orbit: 653 x 3825 km, 34.3° (Epoch: 04 March)

Event Time Altitude Azimuth Distance (km) Brightness Sun altitude
Rises 22:53:52 0° 267° (W) 7,251 14.6 -52.1°
Reaches altitude 10° 23:00:04 10° 255° (WSW) 6,577 14.2 -52.3°
Enters shadow 23:08:24 20° 234° (SW) 5,995 13.8 -52.7°
